Location: Mentone
(34.5413°N, 85.5351°W)
Time: 09:41:51
(UTC-05:00)

Tiros 1 despin weight - All Passes

Search period start: 24 July 2016 00:00
Search period end: 03 August 2016 00:00
Orbit: 596 x 644 km, 48.2° (Epoch: 23 July)

Date Brightness Start Highest point End Pass type
(mag) Time Alt. Az. Time Alt. Az. Time Alt. Az.
24 Jul - 00:00:32 10° SSE 00:02:48 14° SE 00:05:04 10° E night (unlit)
24 Jul - 01:39:26 10° SW 01:43:55 85° NW 01:48:22 10° NE visible
24 Jul - 03:22:32 10° WNW 03:25:59 21° NNW 03:29:25 10° NNE visible
24 Jul - 05:06:37 10° NNW 05:08:52 14° N 05:11:08 10° NNE visible
24 Jul - 06:48:13 10° NNW 06:51:45 23° NNE 06:55:16 10° ENE daylight
24 Jul - 08:29:19 10° NW 08:33:45 87° SW 08:38:14 10° SE daylight
24 Jul - 10:13:06 10° WSW 10:14:49 12° SW 10:16:31 10° SSW daylight
25 Jul - 00:15:51 10° SSW 00:19:48 30° SE 00:23:41 10° ENE night (unlit)
25 Jul - 01:56:58 10° WSW 02:01:15 44° NNW 02:05:31 10° NE visible
25 Jul - 03:40:55 10° NW 03:43:42 16° NNW 03:46:30 10° NNE visible
25 Jul - 05:24:09 10° NNW 05:26:43 15° N 05:29:17 10° NE daylight
25 Jul - 07:05:14 10° NW 07:09:19 35° NNE 07:13:24 10° E daylight
25 Jul - 08:46:46 10° WNW 08:50:56 40° SW 08:55:06 10° SSE daylight
26 Jul - 00:32:25 10° SW 00:36:53 65° SE 00:41:19 10° ENE visible
26 Jul - 02:14:57 10° W 02:18:45 27° NNW 02:22:32 10° NE visible
26 Jul - 03:59:12 10° NW 04:01:31 14° N 04:03:51 10° NNE visible
26 Jul - 05:41:18 10° NNW 05:44:29 19° NNE 05:47:39 10° ENE daylight
26 Jul - 07:22:18 10° NW 07:26:43 65° NE 07:31:07 10° ESE daylight
26 Jul - 09:04:52 10° W 09:07:56 19° SW 09:11:03 10° S daylight
26 Jul - 23:09:33 10° S 23:12:52 20° SE 23:16:09 10° E night (unlit)
27 Jul - 00:49:41 10° WSW 00:54:08 62° NW 00:58:34 10° NE visible
27 Jul - 02:33:14 10° WNW 02:36:24 19° NNW 02:39:33 10° NNE visible
27 Jul - 04:17:01 10° NNW 04:19:23 14° N 04:21:43 10° NE visible
27 Jul - 05:58:19 10° NW 06:02:07 27° NNE 06:05:55 10° E daylight
27 Jul - 07:39:35 10° WNW 07:43:57 61° SW 07:48:20 10° SE daylight
27 Jul - 23:25:37 10° SSW 23:29:54 43° SE 23:34:09 10° ENE night (unlit)
28 Jul - 01:07:26 10° W 01:11:33 34° NNW 01:15:38 10° NE visible
28 Jul - 02:51:36 10° NW 02:54:10 15° N 02:56:43 10° NNE visible
28 Jul - 04:34:21 10° NNW 04:37:10 16° NNE 04:40:00 10° NE visible
28 Jul - 06:15:21 10° NW 06:19:37 46° NNE 06:23:52 10° ESE daylight
28 Jul - 07:57:16 10° WNW 08:01:03 28° SW 08:04:50 10° SSE daylight
28 Jul - 22:03:51 10° SSE 22:05:59 13° SE 22:08:06 10° E night (unlit)
28 Jul - 23:42:32 10° SW 23:47:05 89° NNW 23:51:34 10° NE night (unlit)
29 Jul - 01:25:35 10° WNW 01:29:08 22° NNW 01:32:39 10° NNE visible
29 Jul - 03:09:43 10° NNW 03:12:01 14° N 03:14:17 10° NNE visible
29 Jul - 04:51:25 10° NNW 04:54:53 22° NNE 04:58:22 10° ENE visible
29 Jul - 06:32:30 10° NW 06:36:56 89° NE 06:41:22 10° SE daylight
29 Jul - 08:16:05 10° WSW 08:18:00 13° SW 08:19:55 10° SSW daylight
29 Jul - 22:19:02 10° SSW 22:22:57 29° SE 22:26:50 10° ENE night (unlit)
30 Jul - 00:00:02 10° WSW 00:04:24 46° NNW 00:08:43 10° NE visible
30 Jul - 01:43:56 10° NW 01:46:49 17° NNW 01:49:42 10° NNE visible
30 Jul - 03:27:18 10° NNW 03:29:50 15° N 03:32:23 10° NE visible
30 Jul - 05:08:25 10° NW 05:12:28 34° NNE 05:16:30 10° E visible
30 Jul - 06:49:56 10° WNW 06:54:06 42° SW 06:58:17 10° SSE daylight
30 Jul - 22:35:33 10° SW 22:40:02 62° SE 22:44:30 10° ENE night (unlit)
31 Jul - 00:17:59 10° W 00:21:53 28° NNW 00:25:44 10° NE visible
31 Jul - 02:02:14 10° NW 02:04:38 14° N 02:07:01 10° NNE visible
31 Jul - 03:44:28 10° NNW 03:47:37 18° NNE 03:50:45 10° ENE visible
31 Jul - 05:25:29 10° NW 05:29:53 62° NE 05:34:15 10° ESE visible
31 Jul - 07:07:57 10° W 07:11:08 20° SW 07:14:19 10° S daylight
31 Jul - 21:12:46 10° S 21:16:01 19° SE 21:19:15 10° E visible
31 Jul - 22:52:45 10° WSW 22:57:17 65° NW 23:01:46 10° NE night (unlit)
01 Aug - 00:36:15 10° WNW 00:39:31 19° NNW 00:42:46 10° NNE visible
01 Aug - 02:20:07 10° NNW 02:22:29 14° N 02:24:51 10° NE visible
01 Aug - 04:01:30 10° NW 04:05:16 26° NNE 04:09:01 10° E visible
01 Aug - 05:42:44 10° WNW 05:47:08 65° SW 05:51:30 10° SE daylight
01 Aug - 21:28:44 10° SSW 21:33:02 41° SE 21:37:18 10° ENE visible
01 Aug - 23:10:29 10° W 23:14:41 36° NNW 23:18:51 10° NE visible
02 Aug - 00:54:37 10° NW 00:57:17 15° N 00:59:56 10° NNE visible
02 Aug - 02:37:29 10° NNW 02:40:18 16° NNE 02:43:06 10° NE visible
02 Aug - 04:18:31 10° NW 04:22:46 44° NNE 04:27:00 10° ESE visible
02 Aug - 06:00:23 10° WNW 06:04:14 29° SW 06:08:03 10° SSE daylight
02 Aug - 20:07:09 10° SSE 20:09:07 13° SE 20:11:05 10° ESE visible
02 Aug - 21:45:37 10° SW 21:50:12 87° SE 21:54:45 10° NE visible
02 Aug - 23:28:35 10° WNW 23:32:14 23° NNW 23:35:51 10° NNE visible
